Flag for U.S.A. Weather past 2 weeks in Monticello, Kentucky, U.S.A.

Now
83 °F

Sunny.


Feels Like: 83 °F
Forecast: 65 / 88 °F
Wind: 3 mph from North

Location: London-Corbin Airport-Magee Field

Current Time: Sep 2, 2015 at 8:44:46 PM

Latest Report: Sep 2, 2015 at 7:53 PM


Visibility: 10 mi

Pressure: 30.01 "Hg

Humidity: 48%

Dew point: 61 °F

Location of MonticelloLocation

Historic Weather in Monticello — Graph

°F

Monticello temperature yesterday

Maximum temperature yesterday: 89 °F (at 3:53 PM)
Minimum temperature yesterday: 65 °F (at 4:53 AM)
Average temperature yesterday: 76 °F

Past Weeks' High & Low Weather Summary

 TemperatureHumidityPressure
High90 °F (Sep 2, 2:53 PM)90% (Aug 19, 4:53 AM)30.19 "Hg (Aug 19, 4:53 AM)
Low54 °F (Aug 25, 6:53 AM)35% (Sep 1, 3:53 PM)29.85 "Hg (Aug 19, 5:53 PM)
Average72 °F68%30.05 "Hg
* Reported Aug 18 6:53 PM — Sep 2 6:53 PM, Monticello, Weather by CustomWeather, © 2015

Note: Actual official high and low records may vary slightly from our data, if they occured in-between our weather recording intervals... More about our weather records

Advertising

Monticello weather history for previous 24 hours

 ConditionsComfort  
Time TempWeatherWind HumidityBarometerVisibility
6:53 PM
Wed, Sep 2
88 °FPassing clouds.5 mph39%30.00 "Hg10 mi
5:53 PM87 °FSunny.No wind43%30.01 "Hg10 mi
4:53 PM87 °FSunny.5 mph43%30.02 "Hg10 mi
3:53 PM88 °FScattered clouds.No wind36%30.04 "Hg10 mi
2:53 PM90 °FPassing clouds.No wind37%30.06 "Hg10 mi
1:53 PM89 °FPassing clouds.No wind38%30.08 "Hg10 mi
12:53 PM87 °FPassing clouds.3 mph42%30.10 "Hg10 mi
11:53 AM85 °FSunny.5 mph48%30.12 "Hg10 mi
10:53 AM82 °FSunny.No wind58%30.13 "Hg10 mi
9:53 AM77 °FSunny.No wind71%30.14 "Hg10 mi
8:53 AM71 °FSunny.No wind81%30.14 "Hg8 mi
7:53 AM67 °FClear.No wind85%30.14 "Hg4 mi
6:53 AM66 °FFog.No wind87%30.11 "Hg6 mi
5:53 AM67 °FClear.No wind85%30.10 "Hg6 mi
4:53 AM67 °FClear.No wind85%30.10 "Hg7 mi
3:53 AM67 °FFog.No wind87%30.10 "Hg5 mi
2:53 AM68 °FClear.No wind84%30.10 "Hg7 mi
1:53 AM70 °FClear.No wind81%30.11 "Hg8 mi
12:53 AM70 °FClear.No wind84%30.11 "Hg8 mi
11:53 PM
Tue, Sep 1
71 °FClear.No wind84%30.11 "Hg9 mi
10:53 PM73 °FClear.No wind79%30.10 "Hg10 mi
9:53 PM74 °FClear.No wind76%30.10 "Hg10 mi
8:53 PM77 °FSunny.No wind74%30.09 "Hg10 mi
Weather by CustomWeather, © 2015

See weather overviewHow to use our weather pages